www.pogodaiklimat.ru

Погода и климат >> Архив погоды >> Иран >> Остров Абу-Муса


ПОГОДА на Острове Абу-Муса

  • Прогноз погоды на Острове Абу-Муса
  • Монитор погоды на Острове Абу-Муса

АРХИВ ПОГОДЫ на Острове Абу-Муса

Время (UTC), дата Ветер
(напр.,м/с)
 
Видим.   Явления Облачность Т
(С)
Тd
(С)
f
(%)
Тe
(С)
Тes
(С)
Комфортность P
(гПа)
Po
(гПа)
Тmin
(С)
Tmax
(С)
R
(мм)
R24
(мм)
S
(см)
03 13.02 СЗ 9 6000 м мгла 1/0
[Ac und]
+19.6 +13.7 69 +21 +21 комфорт 1018.1 1017.3 +19.0
06 13.02 С 6 7000 м мгла ясно +21.6 +30.2 100 +28 +31 очень
душно
1020.7 1019.9
09 13.02 СВ 4 10 км ясно +22.4 +12.6 54 +25 +34 комфорт 1020.2 1019.4
12 13.02 Ю 3 10 км ясно +23.0 +30.1 100 +32 +35 очень
душно
1018.8 1018.1
15 13.02 штиль 0 10 км ясно +20.2 +13.6 66 +22 +22 комфорт 1019.5 1018.7 +24.6
03 14.02 В 3 15 км 1/1 750 м
[Sc]
+19.0 +12.6 66 +20 +20 1018.8 1018.0 +16.0
06 14.02 В 3 15 км 1/1 750 м
[Sc]
+22.2 +30.0 100 +30 +36 очень
душно
1020.9 1020.1
09 14.02 СВ 5 15 км мгла 1/1 900 м
[Sc]
+23.6 +10.6 44 +25 +31 комфорт 1019.6 1018.8
12 14.02 СВ 4 12 км 3/0
[Ci fib]
+22.8 +30.1 100 +31 +34 очень
душно
1017.0 1016.3
15 14.02 СВ 3 12 км 3/0
[Ci fib]
+20.6 +11.2 55 +23 +23 комфорт 1017.2 1016.4 +24.2
03 15.02 СВ 2 20 км 5/0
[Ac und]
+19.0 +13.8 72 +21 +21 комфорт 1017.5 1016.7 +18.0
06 15.02 В 6 20 км 8/0
[Ac und Cs]
+22.6 +30.1 100 +31 +33 очень
душно
1019.2 1018.4
09 15.02 В 6 10 км 8/0
[Ac und Cs]
+24.0 +16.5 63 +27 +31 жарко 1017.7 1016.9
12 15.02 СВ 4 10 км 8/0
[Cs]
+24.6 +30.1 100 +34 +37 очень
душно
1016.2 1015.5
15 15.02 СВ 5 10 км 10/0
[Ac und Cs]
+22.2 +14.0 60 +25 +25 комфорт 1016.8 1016.0 +24.8
03 16.02 В 7 6000 м мгла 10/4 750 м
[Cb calv Ac As]
+22.2 +16.3 69 +26 +26 душно 1016.0 1015.2 +21.0
06 16.02 Ю 12 6000 м мгла 6/4 750 м
[Cb calv Ac As]
+23.2 +17.8 72 +29 +29 душно 1014.7 1014.0
09 16.02 Ю 2 6000 м 5/3 750 м
[Sc Ac As]
+24.0 +17.6 67 +28 +36 душно 1014.9 1014.1
12 16.02 Ю 5 6000 м мгла 5/3 750 м
[Sc Ac und]
+23.4 +30.2 100 +33 +34 очень
душно
1013.8 1013.1
15 16.02 СВ 5 6000 м дымка {дождь} 8/3 750 м
[Sc Ac As]
+20.8 +18.9 89 +25 +25 комфорт 1014.0 1013.3 +24.4
06 17.02 СВ 3 5000 м дымка 8/3 750 м
[Sc Ac cuf]
+22.0 +30.1 100 +29 +32 очень
душно
1015.5 1014.7 5
09 17.02 СВ 4 6000 м дымка 8/3 750 м
[Sc Ac cuf]
+24.0 +21.0 83 +30 +33 очень
душно
1014.2 1013.4
12 17.02 СЗ 5 6000 м дымка 6/3 750 м
[Sc Ac As]
+23.0 +30.2 100 +32 +33 очень
душно
1012.6 1011.8
15 17.02 СЗ 3 6000 м дымка 5/3 750 м
[Sc Ac und]
+21.0 +19.4 91 +26 +26 душно 1012.9 1012.1 +24.2
03 18.02 З 8 5000 м мгла 1/1 750 м
[Sc]
+20.0 +15.3 74 +22 +22 комфорт 1014.3 1013.6 +19.6
06 18.02 СЗ 5 6000 м мгла ясно +22.0 +30.1 100 +29 +34 очень
душно
1014.6 1013.9
09 18.02 СЗ 5 5000 м мгла 3/0
[Ci fib]
+23.4 +10.4 44 +25 +32 комфорт 1013.3 1012.5
12 18.02 СЗ 4 6000 м мгла ясно +22.8 +30.2 100 +31 +34 очень
душно
1010.6 1009.8
15 18.02 З 5 6000 м мгла 4/4 750 м
[Sc]
+21.0 +13.0 60 +24 +24 комфорт 1009.6 1008.8 +24.2
03 19.02 З 2 6000 м мгла 5/3 750 м
[Sc Ac As]
+19.2 +12.4 65 +21 +21 комфорт 1009.6 1008.8 +18.8
06 19.02 ЮЗ 2 6000 м мгла 5/3 750 м
[Sc Cs]
+22.4 +30.1 100 +30 +36 очень
душно
1011.6 1010.8
09 19.02 З 4 6000 м мгла ясно +23.2 +13.6 55 +27 +36 душно 1010.0 1009.2
12 19.02 З 2 6000 м мгла 8/3 750 м
[Sc Cs]
+21.8 +30.2 100 +28 +31 душно 1008.6 1007.8
15 19.02 З 4 6000 м мгла 5/4 750 м
[Sc Ac lent]
+20.4 +14.6 69 +23 +23 комфорт 1009.3 1008.5 +23.4

 

Местоположение метеостанции Остров Абу-Муса (Иран): широта 25.83 долгота 54.83 высота над уровнем моря 6 м.

В архиве по умолчанию представлена погода на Острове Абу-Муса за последнюю неделю. Архивные данные за месяц целиком и за предыдущие месяцы, начиная с января 2011 года, Вы можете получить, выбрав интересующий диапазон дат из раскрывающегося списка и нажав кнопку "Ввод!".


*Определитесь, кто Вы:
робот инопланетянин человек

Внимание! Время в таблицах - всемирное. Для получения местного времени необходимо прибавить поправку, которая равна 3.5 ч.

Смотрите также архив погоды в соседних городах и на ближайших метеорологических станциях:

Погода на Острове Сирри (Иран) (29 км)
Погода в Дубае (ОАЭ) (82 км)
Погода в Бендер-Ленге (Иран) (83 км)
Погода в Шардже (ОАЭ) (89 км)
Погода в Аль-Мактум аэропорту (ОАЭ) (109 км)
Погода в Рай-эль-Хайма аэропорту (ОАЭ) (113 км)
Погода на Острове Киш (Иран) (113 км)
Погода в Дибе (Оман) (144 км)
Погода в Эль-Хасаб аэропорту (Оман) (145 км)
Погода в Эль-Хасабе (Оман) (147 км)

Пояснения к столбцам:

Ветер - указаны скорость ветра в м/с - средняя за 10 мин, порывы в срок и между сроками (в фигурных скобках) и направление, откуда дует ветер: С - северный, СВ - северо-восточный, В - восточный, ЮВ - юго-восточный, Ю - южный, ЮЗ - юго-западный, З - западный, СЗ - северо-западный.
Видимость - горизонтальная дальность видимости в метрах или километрах. При видимости от 1 до 10 км при отсутствии осадков обычно наблюдается дымка, при ухудшении видимости до 1 км и менее - туман. В сухую погоду видимость может ухудшаться дымом, пылью или мглою.
Явления - указаны атмосферные явления, наблюдавшиеся в срок или в последний час перед сроком; фигурными скобками обозначены явления, наблюдавшиеся между сроками (за 1-3 часа до срока); квадратными скобками обозначены град или гололедные отложения с указанием их диаметра в мм.
Облачность - указаны через наклонную черту общая и нижняя облачность в баллах и высота нижней границы облаков в метрах; квадратными скобками обозначены формы облаков: Ci - перистые, Cs - перисто-слоистые, Cc - перисто-кучевые, Ac - высококучевые, As - высокослоистые, Sc - слоисто-кучевые, Ns - слоисто-дождевые, Cu - кучевые, Cb - кучево-дождевые. Подробнее классификацию облаков см. в Атласе облаков (PDF).
T - Температура воздуха - температура, измеренная на высоте 2 м над землей.
Td - Температура точки росы - температура, при понижении до которой содержащийся в воздухе водяной пар достигнет насыщения.
f - Относительная влажность воздуха - влажноcть воздуха, измеренная на высоте 2 м над землей.
Te - Эффективная температура - температура, которую ощущает одетый по сезону человек в тени. Характеристика душности погоды. При расчете учитывается влияние влажности воздуха и скорости ветра на теплоощущения человека.
Tes - Эффективная температура на солнце - температура, которую ощущает человек, с поправкой на солнечный нагрев. Характеристика знойности погоды. Зависит от высоты солнца над горизонтом, облачности и скорости ветра. Ночью, в пасмурную погоду, а также при ветре 12 м/с и более поправка равна нулю.
P - Атмосферное давление - приведенное к уровню моря атмосферное давление.
Po - Атмосферное давление - измеренное на уровне метеостанции атмосферное давление.
Tmin - Минимальная температура - минимум температуры воздуха на высоте 2 м над землей.
Tmax - Максимальная температура - максимум температуры воздуха на высоте 2 м над землей.
R - Количество осадков - Количество выпавших осадков за период времени, мм. При наведении курсора мыши на число - период времени, за который выпало указанное количество осадков.
R24 - Количество осадков - Количество выпавших осадков за 24 часа, мм.
S - Снежный покров - Высота снежного покрова, см. При наведении курсора мыши на число - состояние снежного покрова и степень покрытия местности в баллах.